www.pogodaiklimat.ru

Погода и климат >> Архив погоды >> Россия >> Приморский край >> Глубинное


ПОГОДА в Глубинном

  • Прогноз погоды в Глубинном
  • Монитор погоды в Глубинном

АРХИВ ПОГОДЫ в Глубинном

Время (UTC), дата Ветер
(напр.,м/с)
 
Видим.   Явления Облачность Т
(С)
Тd
(С)
f
(%)
Тe
(С)
Тes
(С)
Комфортность P
(гПа)
Po
(гПа)
Тmin
(С)
Tmax
(С)
R
(мм)
R24
(мм)
S
(см)
09 10.07 З 1 10 км 6/1 600 м
[Cu hum Ci fib]
+28.4 +17.3 51 +32 +33 душно 1011.6 988.0 +29.9
12 10.07 ЮЗ 1 10 км ясно +19.2 +18.5 96 +22 +22 комфорт 1013.6 989.3
15 10.07 штиль 0 10 км ясно +15.7 +15.1 96 +15 +15 1014.0 989.3
18 10.07 штиль 0 10 км 7 баллов +15.2 +14.7 97 +15 +15 1015.4 990.7
21 10.07 штиль 0 500 м туман ?/? +16.0 +16.0 100 +16 +16 1014.1 989.6 +14.8
00 11.07 ЮЗ 1 10 км {туман} 10/10 600 м
[Sc]
+21.5 +17.8 79 +26 +26 душно 1012.3 988.3
03 11.07 ЮЗ 1 10 км 10 баллов +27.5 +12.3 39 +29 +29 жарко 1011.7 988.0
06 11.07 ЮЗ 2 10 км 10 баллов +27.6 +16.2 50 +31 +31 душно 1008.9 985.3
09 11.07 штиль 0 10 км 10/0
[Ac lent Ci sp]
+24.9 +19.5 72 +30 +30 душно 1007.7 984.0 +29.7
12 11.07 штиль 0 10 км 8/0
[Ac lent Ci sp]
+17.7 +17.0 96 +18 +18 1007.4 983.2
15 11.07 штиль 0 10 км 4 балла +13.7 +13.1 96 +13 +13 1008.7 984.0
18 11.07 В 1 10 км 2 балла +13.1 +12.6 97 +13 +13 1007.4 982.7
21 11.07 штиль 0 500 м туман ?/? +13.4 +13.4 100 +13 +13 1006.5 981.9 +11.8
00 12.07 С 1 10 км {туман} 9/0
[Ci fib]
+21.6 +16.2 71 +25 +36 комфорт 1004.6 980.7
03 12.07 ЮЗ 2 10 км 9 баллов +26.5 +13.9 46 +29 +31 жарко 1003.5 980.0
06 12.07 ЮЗ 1 10 км 10 баллов +27.4 +14.4 45 +30 +30 жарко 1002.1 978.7
09 12.07 штиль 0 10 км 10/10 600 м
[Sc]
+23.5 +18.8 75 +28 +28 душно 1002.4 978.7 +27.7
12 12.07 штиль 0 10 км 10/10 600 м
[Sc]
+18.5 +17.3 93 +19 +19 1003.2 979.1
15 12.07 штиль 0 10 км 10 баллов +16.6 +16.0 96 +16 +16 1004.3 980.0
18 12.07 штиль 0 10 км 10 баллов +16.2 +15.6 96 +16 +16 1004.4 980.0
21 12.07 штиль 0 10 км 10/10 600 м
[Sc]
+17.5 +16.3 93 +17 +17 1003.4 979.2 +16.0
00 13.07 ЮЗ 1 10 км 10/10 600 м
[Sc]
+21.6 +16.3 72 +25 +25 комфорт 1003.6 979.8
03 13.07 ЮЗ 1 10 км 10 баллов +22.1 +15.9 68 +26 +26 душно 1005.2 981.3
06 13.07 З 1 10 км 10 баллов +23.1 +17.1 69 +28 +28 душно 1003.8 980.0
09 13.07 Ю 1 10 км 10/10 600 м
[Sc]
+22.5 +17.7 74 +28 +28 душно 1002.7 979.0 +23.2
12 13.07 штиль 0 10 км 10/10 600 м
[Sc]
+18.7 +17.9 95 +20 +20 1004.4 980.3
18 13.07 штиль 0 10 км 7 баллов +16.0 +15.4 96 +16 +16 1005.7 981.3
21 13.07 штиль 0 10 км 10/10 600 м
[Sc]
+16.3 +15.8 97 +16 +16 1005.9 981.6 +15.7
00 14.07 штиль 0 10 км 10/10 600 м
[Sc]
+19.5 +15.2 76 +21 +21 комфорт 1005.8 981.7
03 14.07 В 1 10 км 10 баллов +23.7 +14.4 56 +26 +26 жарко 1006.5 982.7
06 14.07 З 1 10 км 7 баллов +26.5 +14.6 48 +29 +33 жарко 1004.9 981.3
09 14.07 В 1 10 км {ливн. осадки} 8/8 600 м
[Sc]
+23.0 +17.7 72 +28 +29 душно 1006.6 982.7 +26.5 0.5
12 14.07 штиль 0 10 км {ливн. осадки} 10/10 600 м
[Sc]
+19.0 +18.0 94 +21 +21 комфорт 1007.5 983.4
15 14.07 штиль 0 10 км 10 баллов +17.6 +17.0 96 +18 +18 1009.7 985.3
18 14.07 В 1 10 км 10 баллов +16.5 +15.9 96 +17 +17 1011.2 986.7
21 14.07 штиль 0 10 км 10/10 600 м
[Sc]
+17.0 +15.3 90 +17 +17 1010.7 986.3 +16.2 1
00 15.07 В 1 10 км 10/10 600 м
[Sc]
+20.2 +15.2 73 +24 +24 комфорт 1011.4 987.3
03 15.07 ЮЗ 1 10 км 9 баллов +24.4 +15.3 57 +27 +29 жарко 1011.9 988.0
06 15.07 штиль 0 10 км 9 баллов +23.3 +16.1 64 +28 +29 душно 1012.0 988.0
09 15.07 штиль 0 10 км {ливн. осадки} 8/8 600 м
[Cb cap]
+23.7 +17.0 66 +27 +28 жарко 1011.9 988.0 +24.5 0.6
12 15.07 штиль 0 10 км {ливн. осадки} 8/8 600 м
[Sc]
+17.6 +16.9 96 +18 +18 1012.9 988.6
15 15.07 ЮВ 1 10 км 9 баллов +19.6 +13.5 68 +22 +22 комфорт 1015.1 990.7
18 15.07 штиль 0 10 км 9 баллов +16.5 +15.2 92 +16 +16 1015.3 990.7
21 15.07 штиль 0 10 км 9/9 600 м
[Sc]
+16.7 +15.7 94 +17 +17 1014.5 990.0 +15.6
00 16.07 штиль 0 10 км 8/8 600 м
[Sc]
+21.1 +14.5 66 +24 +27 комфорт 1014.4 990.2
03 16.07 З 1 10 км 9 баллов +25.3 +15.3 54 +28 +30 жарко 1013.2 989.3
06 16.07 З 3 10 км 9 баллов +27.3 +14.3 45 +30 +31 душно 1011.7 988.0
09 16.07 З 1 10 км 9/3 600 м
[Sc Ci fib]
+26.1 +16.3 55 +30 +30 душно 1011.7 988.0 +28.2
12 16.07 штиль 0 10 км 9/9 600 м
[Sc]
+19.6 +18.5 93 +22 +22 комфорт 1011.8 987.6
15 16.07 штиль 0 10 км 10 баллов +18.7 +17.9 95 +20 +20 1013.7 989.3
18 16.07 штиль 0 10 км 10 баллов +17.5 +16.9 96 +17 +17 1013.8 989.3
21 16.07 штиль 0 500 м туман ?/? +17.9 +17.9 100 +18 +18 1011.4 987.1 +16.5 0.3
00 17.07 СЗ 1 10 км {туман} 8/3 600 м
[Cu hum Ac trans]
+23.6 +17.7 70 +28 +33 душно 1010.0 986.2
03 17.07 З 2 10 км 10 баллов +26.2 +16.4 55 +30 +30 душно 1009.0 985.3

 

Местоположение метеостанции Глубинное (Приморский край, Россия): широта 46.07 долгота 135.30 высота над уровнем моря 210 м.

В архиве по умолчанию представлена погода в Глубинном за последнюю неделю. Архивные данные за месяц целиком и за предыдущие месяцы, начиная с января 2011 года, Вы можете получить, выбрав интересующий диапазон дат из раскрывающегося списка и нажав кнопку "Ввод!".


*Определитесь, кто Вы:
робот инопланетянин человек

Внимание! Время в таблицах - всемирное. Для получения местного времени необходимо прибавить поправку, которая равна 10 ч.

Смотрите также архив погоды в соседних городах и на ближайших метеорологических станциях:

Погода в Красном Яре (Приморский край, Россия) (51 км)
Погода в Мельничном (Приморский край, Россия) (71 км)
Погода в Малиново (Приморский край, Россия) (112 км)
Погода в Бикине (Хабаровский край, Россия) (117 км)
Погода в Дальнереченске (Приморский край, Россия) (126 км)
Погода в Лермонтовке (Хабаровский край, Россия) (142 км)
Погода в Тернее (Приморский край, Россия) (156 км)
Погода в Малой Кеме (Приморский край, Россия) (158 км)
Погода в Вяземском (Хабаровский край, Россия) (168 км)
Погода в Лесозаводске (Приморский край, Россия) (169 км)

Пояснения к столбцам:

Ветер - указаны скорость ветра в м/с - средняя за 10 мин, порывы в срок и между сроками (в фигурных скобках) и направление, откуда дует ветер: С - северный, СВ - северо-восточный, В - восточный, ЮВ - юго-восточный, Ю - южный, ЮЗ - юго-западный, З - западный, СЗ - северо-западный.
Видимость - горизонтальная дальность видимости в метрах или километрах. При видимости от 1 до 10 км при отсутствии осадков обычно наблюдается дымка, при ухудшении видимости до 1 км и менее - туман. В сухую погоду видимость может ухудшаться дымом, пылью или мглою.
Явления - указаны атмосферные явления, наблюдавшиеся в срок или в последний час перед сроком; фигурными скобками обозначены явления, наблюдавшиеся между сроками (за 1-3 часа до срока); квадратными скобками обозначены град или гололедные отложения с указанием их диаметра в мм.
Облачность - указаны через наклонную черту общая и нижняя облачность в баллах и высота нижней границы облаков в метрах; квадратными скобками обозначены формы облаков: Ci - перистые, Cs - перисто-слоистые, Cc - перисто-кучевые, Ac - высококучевые, As - высокослоистые, Sc - слоисто-кучевые, Ns - слоисто-дождевые, Cu - кучевые, Cb - кучево-дождевые. Подробнее классификацию облаков см. в Атласе облаков (PDF).
T - Температура воздуха - температура, измеренная на высоте 2 м над землей.
Td - Температура точки росы - температура, при понижении до которой содержащийся в воздухе водяной пар достигнет насыщения.
f - Относительная влажность воздуха - влажноcть воздуха, измеренная на высоте 2 м над землей.
Te - Эффективная температура - температура, которую ощущает одетый по сезону человек в тени. Характеристика душности погоды. При расчете учитывается влияние влажности воздуха и скорости ветра на теплоощущения человека.
Tes - Эффективная температура на солнце - температура, которую ощущает человек, с поправкой на солнечный нагрев. Характеристика знойности погоды. Зависит от высоты солнца над горизонтом, облачности и скорости ветра. Ночью, в пасмурную погоду, а также при ветре 12 м/с и более поправка равна нулю.
P - Атмосферное давление - приведенное к уровню моря атмосферное давление.
Po - Атмосферное давление - измеренное на уровне метеостанции атмосферное давление.
Tmin - Минимальная температура - минимум температуры воздуха на высоте 2 м над землей.
Tmax - Максимальная температура - максимум температуры воздуха на высоте 2 м над землей.
R - Количество осадков - Количество выпавших осадков за период времени, мм. При наведении курсора мыши на число - период времени, за который выпало указанное количество осадков.
R24 - Количество осадков - Количество выпавших осадков за 24 часа, мм.
S - Снежный покров - Высота снежного покрова, см. При наведении курсора мыши на число - состояние снежного покрова и степень покрытия местности в баллах.